RH
93 92 93 96 98 99 100 102 101 102 102 102 101 101 100 98 97 94 90 85 83 82 85 90 97 100 100 102 102 100 100 102 102 102 101 101 101 101 99 98 100 95 86 86 95 99 96 92 93 100 104 104 104 102 101 103 102 101 99 91 85 86 89
100 100 100 100 100 100 101 101 100 100 100 101 101 101 101 102 100 96 91 88 87 88 88 88 94 99 101 102 102 100 100 101 102 102 101 101 101 101 100 100 101 100 93 88 93 99 99 93 91 96 101 102 102 101 101 103 104 104 102 97 91 90 90
100 100 100 100 100 100 100 100 100 100 100 100 100 100 101 103 103 101 98 96 97 99 96 92 92 97 100 101 101 101 100 100 99 100 100 100 101 101 100 100 100 102 98 93 94 98 98 93 91 94 99 101 101 102 103 103 104 105 104 100 95 92 90
100 100 100 100 100 100 100 100 99 100 100 100 101 101 102 102 101 101 100 100 102 104 102 99 96 96 98 99 100 100 100 100 100 100 100 100 100 100 100 100 100 101 101 97 98 99 98 94 90 90 96 100 100 101 103 102 103 103 101 97 93 92 90
100 100 100 101 101 100 100 100 100 102 102 101 101 101 101 99 97 98 99 100 101 102 101 101 98 95 94 94 95 96 97 99 101 101 101 100 100 100 100 100 100 100 100 99 99 99 99 98 91 85 89 94 96 97 97 97 97 97 95 93 91 90 88
102 102 101 101 102 101 100 99 99 101 102 102 103 102 102 101 98 97 99 101 101 101 101 101 100 98 96 93 92 91 94 98 101 102 102 101 100 99 100 100 100 100 100 100 100 99 100 99 94 87 85 87 91 93 93 91 92 92 91 90 90 89 87
86 95 100 101 100 99 99 100 100 101 101 101 101 102 102 102 102 100 100 100 99 99 98 97 97 97 98 98 97 94 94 97 99 101 102 102 101 101 101 101 100 100 100 100 100 100 100 100 97 92 88 86 87 89 89 87 87 87 88 89 89 88 87
43 61 80 95 102 103 101 99 99 99 100 100 100 101 102 102 102 102 101 99 98 96 94 92 91 93 97 101 103 100 98 97 98 100 101 101 102 103 103 102 102 101 101 101 102 101 101 102 102 97 92 88 85 83 84 85 86 87 87 86 85 84 83
14 21 34 53 72 87 98 102 103 102 101 100 100 99 100 100 100 101 101 101 100 99 98 96 96 97 98 100 100 100 100 99 99 100 101 100 101 101 102 101 101 101 100 100 101 101 101 103 104 100 96 92 87 83 83 86 86 86 84 82 81 79 77
14 12 12 16 24 37 53 68 79 87 93 97 99 99 99 98 98 99 99 99 99 99 100 100 100 100 100 100 100 101 101 101 102 102 102 102 100 99 99 97 96 97 96 96 97 98 99 101 100 98 94 90 87 84 83 83 83 83 83 81 79 76 73
19 17 15 13 12 13 17 24 32 41 50 58 66 74 79 82 83 84 84 84 85 86 87 89 90 90 91 91 92 92 91 91 91 91 91 91 90 90 90 89 89 88 88 89 88 89 90 89 87 85 82 79 77 75 73 72 73 75 77 76 74 71 69
23 20 18 16 16 15 14 16 18 20 23 27 31 36 42 47 51 54 55 57 59 61 63 64 64 65 65 66 67 67 66 65 64 64 64 64 65 67 68 70 72 72 73 74 74 74 74 73 71 70 68 66 65 65 66 67 68 68 69 70 70 70 71
25 22 20 18 18 18 18 20 23 25 27 29 29 29 28 29 31 33 35 36 37 39 41 42 42 43 44 45 46 46 46 45 44 45 45 45 45 47 48 50 52 54 55 56 57 59 58 58 59 60 60 60 62 65 68 68 67 66 69 74 77 80 85
24 20 19 18 18 20 21 22 25 28 31 34 36 36 34 34 34 33 32 31 30 30 30 30 31 31 33 34 35 37 37 36 36 35 35 35 36 36 36 37 39 41 43 45 47 50 50 51 56 59 62 67 72 75 75 75 75 78 82 87 90 93 96
22 20 19 20 23 27 29 31 32 34 36 38 39 40 39 39 42 43 42 40 39 37 36 35 34 33 33 34 35 36 37 36 36 34 33 32 32 32 32 32 32 33 34 36 38 41 43 47 55 63 72 82 89 90 90 92 94 96 98 100 98 96 93
22 22 26 31 39 45 49 52 54 54 55 56 57 58 57 57 59 61 60 57 54 52 50 50 49 48 46 44 43 43 42 42 41 39 38 36 35 35 34 33 33 33 33 34 35 37 38 41 49 62 76 90 98 100 100 101 101 100 102 103 101 98 96
26 31 40 48 56 64 70 74 77 79 80 82 85 85 83 80 80 80 79 75 70 66 62 59 57 53 50 47 45 43 42 41 40 39 39 39 38 38 39 38 38 38 37 36 38 43 48 50 55 66 79 92 101 102 101 101 101 100 101 101 101 100 100
36 40 49 60 71 81 89 91 91 92 93 97 101 101 98 95 90 86 81 74 67 62 60 58 55 52 49 48 47 47 47 46 46 45 44 44 43 43 45 45 46 47 48 49 52 60 73 80 82 86 91 97 102 104 102 101 101 100 100 100 100 100 100
50 53 61 70 80 89 96 98 98 99 99 99 97 93 88 84 80 75 71 68 67 71 73 72 69 64 61 59 58 58 58 58 57 55 54 54 55 55 55 55 56 60 65 69 73 81 93 100 101 100 101 100 100 102 101 101 101 101 101 100 100 99 100
63 67 72 77 83 90 94 96 97 98 98 97 95 91 87 83 79 76 73 68 66 66 64 59 54 49 46 44 42 41 41 41 41 40 40 42 46 49 49 51 59 69 75 79 82 85 93 99 100 102 103 102 101 100 100 99 100 100 100 100 100 100 100
73 77 84 89 91 90 91 96 101 104 103 100 93 85 76 68 61 56 51 46 40 38 36 34 33 32 31 30 29 29 28 27 26 26 26 25 26 27 27 29 39 52 66 77 85 88 91 94 98 101 103 104 104 102 101 100 99 99 100 100 99 100 100
82 87 93 95 96 97 99 102 100 92 81 70 58 49 43 39 36 36 37 37 35 36 36 36 35 35 34 33 32 31 30 29 28 27 26 25 24 23 22 21 22 26 36 54 73 88 97 100 101 103 104 105 105 104 102 100 98 97 99 101 101 100 99
90 93 97 99 101 100 92 79 65 52 44 39 38 39 40 40 41 43 45 44 42 41 41 39 38 36 34 33 32 31 30 29 28 27 25 25 24 23 22 22 21 20 21 28 43 64 85 99 104 105 105 104 103 102 101 102 101 99 99 100 101 102 100
97 102 104 99 89 74 56 44 38 38 39 42 45 48 48 47 46 46 45 44 43 42 40 38 36 34 32 31 29 28 27 26 25 25 24 23 23 22 21 20 20 20 20 21 27 41 62 82 97 105 106 102 101 101 101 102 102 101 100 99 99 100 101
105 102 89 71 56 45 40 42 45 46 47 47 48 48 47 46 44 43 42 41 40 38 36 34 32 30 28 27 26 25 25 24 23 22 22 21 20 20 20 19 19 19 19 19 21 31 47 66 85 101 105 102 101 103 102 101 102 102 102 101 99 100 102
94 75 56 46 45 47 51 54 54 53 51 49 47 46 45 43 41 40 39 37 36 34 32 30 28 26 25 24 23 22 22 21 21 20 19 19 19 18 19 19 19 19 20 19 18 25 40 57 76 94 102 101 102 103 101 99 101 103 103 100 99 100 101
66 50 46 49 53 57 59 60 58 55 52 49 48 46 45 43 40 38 35 32 30 28 26 25 24 22 22 21 20 20 19 18 18 18 19 20 22 24 25 27 27 26 25 24 22 22 30 46 68 90 101 100 99 101 101 101 101 101 101 100 100 101 101
50 49 55 59 61 62 63 62 59 55 52 49 46 42 39 36 33 31 29 27 27 26 24 24 23 21 20 19 19 18 19 19 19 21 23 27 30 33 35 36 37 36 35 35 34 32 29 34 49 74 95 103 102 99 99 100 101 101 102 101 99 101 101
54 60 64 66 67 67 65 61 56 51 46 42 38 34 31 29 28 28 27 26 25 23 21 20 20 21 22 23 24 25 26 27 29 29 31 33 34 36 38 38 39 39 40 41 44 46 43 40 39 48 67 88 101 103 102 100 99 100 101 101 101 102 102
65 69 70 71 69 65 59 52 46 41 37 34 31 29 28 27 26 25 23 21 21 23 28 32 37 40 43 45 46 47 47 47 48 47 48 48 47 47 48 48 48 47 47 47 48 48 51 52 51 49 49 58 73 86 96 102 104 102 102 102 102 103 102
74 74 72 68 61 53 46 41 36 33 30 29 29 28 26 24 22 23 27 33 39 44 49 51 52 53 53 52 52 52 52 51 51 51 51 51 52 51 51 51 52 53 53 54 54 53 53 54 57 58 57 55 56 60 69 81 91 96 100 103 105 104 102
75 71 63 55 47 41 36 33 31 30 30 29 27 24 24 27 35 43 50 54 55 53 51 50 48 48 47 47 47 46 46 46 45 46 46 46 46 47 47 47 48 49 50 51 53 54 56 57 56 58 60 62 63 62 61 63 68 71 75 83 90 94 97
67 58 50 43 38 34 32 31 31 30 27 24 25 31 42 52 58 59 57 53 50 49 47 46 46 44 42 40 38 36 35 34 33 32 33 33 34 35 36 37 39 41 42 44 46 47 50 53 55 57 59 61 65 67 67 68 67 65 63 65 69 71 75
54 46 40 36 33 32 32 31 28 26 27 33 43 54 61 62 58 55 54 53 50 47 44 39 35 31 28 25 23 21 20 19 19 18 18 19 19 20 20 22 23 25 27 30 33 36 38 41 45 48 52 55 58 62 65 69 71 71 69 68 68 66 66
42 38 35 34 34 33 30 27 28 38 51 61 66 64 60 56 55 56 54 49 42 35 30 26 22 20 19 18 17 17 17 16 16 17 16 16 16 16 16 16 16 17 18 18 19 21 23 26 30 33 37 42 46 50 55 59 63 67 69 69 70 71 72
37 37 36 35 32 29 30 39 55 69 75 71 65 61 60 58 55 49 41 34 28 24 21 20 19 19 19 20 20 20 20 19 19 19 18 19 19 18 19 19 19 19 19 19 19 18 17 17 18 20 22 25 28 33 38 43 47 53 58 61 64 66 69
Wind_Speed
86 86 86 85 85 84 83 83 83 83 83 83 84 85 85 86 86 87 88 89 91 91 91 90 88 87 85 85 86 87 88 89 90 91 90 91 91 91 92 92 93 93 89 88 90 90 90 89 87 86 87 87 87 86 85 85 86 85 86 86 85 85 86
85 86 86 86 85 85 85 84 84 84 84 84 85 86 86 87 88 88 89 90 91 91 92 91 90 88 87 86 86 86 87 89 90 91 91 92 92 92 92 92 93 93 92 90 91 91 92 91 90 89 89 89 88 88 87 87 87 87 87 87 87 87 88
88 88 88 88 88 88 87 87 87 86 86 86 86 86 87 87 88 88 89 89 89 89 90 91 91 90 89 87 86 85 86 87 87 88 89 90 91 92 91 92 92 93 93 91 91 92 92 93 92 90 90 90 89 89 88 88 88 89 89 89 90 90 90
90 90 90 90 90 90 90 90 90 90 89 89 89 88 88 88 88 89 90 90 89 89 89 90 90 90 90 89 88 87 87 87 86 86 87 88 89 90 90 90 91 91 91 91 91 91 92 93 93 91 91 91 90 90 90 90 90 91 91 92 92 92 92
89 89 89 89 89 90 90 90 90 90 90 90 90 90 89 89 89 90 91 91 90 90 91 91 91 90 91 91 91 90 89 88 88 87 87 87 88 89 89 90 91 91 91 92 92 91 92 93 94 93 92 92 93 93 93 93 93 94 93 93 93 93 93
87 86 86 87 88 88 88 88 88 88 89 89 89 89 89 90 90 90 91 92 92 92 93 93 93 91 91 92 92 92 90 90 89 89 88 88 89 89 90 91 92 92 93 93 93 93 93 94 95 95 95 95 95 95 96 95 95 95 95 94 94 93 93
88 87 86 85 85 85 85 85 85 85 86 86 86 86 86 87 88 88 89 90 91 93 94 94 93 92 90 90 90 91 91 91 91 91 91 90 90 91 91 92 92 92 93 93 93 93 93 93 94 95 95 96 96 96 96 96 96 96 95 95 94 94 93
86 87 88 87 87 86 86 85 85 85 85 85 85 85 85 85 85 86 86 87 88 89 91 91 91 90 89 88 88 88 89 90 91 92 92 91 91 92 92 93 93 93 93 93 93 93 93 93 94 94 94 95 96 96 96 96 96 96 96 96 95 95 94
78 80 83 86 88 89 89 89 89 89 89 88 88 87 87 86 86 86 86 87 87 87 87 88 88 88 88 88 88 88 88 89 90 91 92 92 92 93 94 94 94 94 94 94 94 94 94 94 95 95 94 95 96 95 95 96 96 96 97 96 96 96 95
71 73 76 79 82 85 88 89 91 92 93 93 93 92 91 90 90 90 89 89 89 89 89 89 89 89 89 90 90 90 90 90 90 90 91 92 92 93 94 94 95 95 95 95 95 94 94 94 94 93 93 92 93 93 94 95 95 96 96 97 97 96 96
68 69 71 73 76 79 81 84 86 88 90 92 94 95 95 95 94 94 93 93 92 92 92 92 92 92 92 92 92 93 93 92 92 92 92 92 92 92 93 94 95 95 95 95 95 95 94 95 94 93 93 93 93 94 95 95 96 97 98 99 99 98 97
67 68 69 70 72 74 76 79 81 82 84 85 88 90 91 92 92 93 92 92 92 92 92 92 91 92 92 93 94 94 94 94 94 94 94 93 93 93 94 94 95 96 96 96 97 97 97 97 96 96 95 95 94 95 96 97 97 98 99 99 100 99 98
66 67 68 69 71 73 75 76 78 79 80 81 82 84 84 84 85 86 86 87 87 87 88 87 87 87 88 89 90 91 92 92 93 93 93 94 94 94 95 95 96 96 97 98 98 99 99 98 98 98 97 96 96 96 97 98 98 98 98 99 99 98 97
65 66 67 68 70 72 74 75 77 77 78 78 79 80 79 78 78 79 79 80 80 80 81 81 82 82 82 83 83 85 86 87 89 90 92 93 94 94 95 95 96 97 97 98 99 99 99 98 98 98 97 96 97 98 98 98 97 97 98 99 98 98 98
63 64 65 65 66 67 68 69 71 72 73 73 73 74 73 72 72 73 73 74 74 74 74 75 76 77 77 77 78 79 80 81 83 85 87 88 90 91 93 94 95 95 96 97 98 99 99 98 98 98 97 96 97 98 97 97 96 97 98 99 99 99 100
60 59 59 58 58 57 57 58 59 60 62 63 64 65 65 64 64 65 66 67 67 68 69 69 70 71 72 73 73 75 76 78 79 80 81 83 84 86 87 88 89 91 92 93 95 96 97 96 95 96 95 95 95 96 95 95 95 96 97 98 98 98 98
54 52 51 50 49 49 49 49 50 51 52 54 55 56 57 57 58 59 61 62 62 62 63 65 66 67 68 68 69 71 72 74 75 76 77 78 79 80 82 83 84 85 87 88 89 90 91 91 90 90 91 91 92 92 92 92 92 92 93 93 94 93 93
48 47 45 45 45 45 46 46 47 48 49 50 51 52 52 53 54 55 57 58 58 59 60 62 63 64 64 64 65 66 68 69 70 71 72 73 73 74 75 76 77 79 81 82 84 85 86 86 85 85 85 86 87 88 88 88 88 88 88 89 89 87 87
45 44 43 44 44 44 45 45 46 47 47 48 49 50 50 51 52 53 54 55 55 56 59 60 60 61 61 61 62 63 65 66 68 68 68 69 69 70 71 70 71 72 74 76 77 79 81 82 82 82 83 83 84 85 86 85 84 85 85 85 85 83 83
43 43 43 43 43 44 44 45 45 46 47 48 48 49 49 49 50 50 50 50 51 54 55 56 57 58 59 60 60 61 62 64 65 66 66 67 69 70 69 68 69 71 73 73 74 75 77 79 80 81 82 83 83 84 85 84 82 83 84 83 83 83 83
42 42 42 43 43 43 44 44 45 46 46 46 46 46 46 46 46 46 47 48 50 52 54 55 57 58 59 61 62 63 64 65 66 67 67 69 70 70 69 69 70 72 73 74 74 75 76 77 79 80 81 82 82 83 84 84 83 82 82 82 82 83 83
41 42 42 43 43 43 43 43 43 43 43 43 43 43 44 45 45 47 49 51 52 54 56 58 59 61 62 64 66 67 68 69 70 71 72 73 73 73 73 73 74 74 75 75 75 76 77 77 78 79 80 81 81 81 82 83 82 81 81 81 81 82 82
42 42 43 43 42 41 41 41 41 41 41 42 44 45 47 48 49 50 53 55 56 57 59 61 62 63 65 67 69 70 72 73 74 75 76 76 77 77 78 78 78 78 78 78 78 78 78 78 78 79 79 80 80 80 80 81 81 80 79 79 80 80 81
42 42 41 41 40 40 40 41 42 43 44 45 47 48 50 52 52 54 57 58 60 61 62 64 65 66 68 69 71 72 74 75 76 77 78 79 80 80 81 81 82 82 82 82 82 81 80 80 79 79 79 79 80 79 80 80 80 80 79 79 79 79 79
39 39 39 39 39 40 41 43 45 46 47 49 50 51 54 56 57 58 60 62 64 65 66 67 68 69 70 71 72 74 75 76 78 79 80 81 81 82 83 84 84 84 85 85 85 85 84 83 82 81 80 80 79 79 79 79 79 79 79 79 78 79 79
36 37 38 38 39 41 43 45 48 49 51 53 54 55 58 60 60 62 65 67 67 68 69 70 70 71 72 73 74 75 76 77 78 79 80 81 81 82 82 83 83 84 85 85 86 87 87 86 85 84 82 81 80 80 79 79 79 79 79 78 78 78 78
35 36 37 39 40 43 45 48 50 52 54 56 57 58 61 63 62 64 66 68 68 69 70 71 72 72 73 74 75 76 77 77 77 77 77 77 76 76 76 77 78 79 80 82 83 85 86 87 87 87 85 84 83 81 81 80 80 80 80 79 79 79 79
34 36 38 40 42 45 47 50 52 54 56 58 59 60 62 63 62 63 66 67 67 68 70 71 72 72 73 74 74 74 74 73 72 72 70 70 69 69 69 70 71 72 74 76 77 80 82 84 86 88 88 87 86 85 83 83 83 82 82 82 82 81 81
34 37 40 42 44 46 49 52 55 57 58 59 60 61 62 61 61 62 64 65 65 66 66 66 66 65 65 65 64 64 64 64 64 64 64 63 63 63 63 64 64 65 67 68 70 73 76 79 82 85 87 88 89 88 87 86 86 85 84 84 84 84 83
36 38 41 44 47 50 52 55 57 58 58 58 59 60 60 60 60 61 62 61 60 58 56 55 55 54 54 55 55 56 57 57 58 59 59 60 60 60 60 60 59 60 60 62 63 66 68 72 75 78 82 85 87 89 89 89 89 88 87 87 87 86 86
38 41 44 47 50 53 54 56 56 57 57 57 58 59 59 58 57 55 53 51 50 49 49 49 49 50 51 51 52 53 54 55 55 56 57 58 59 60 60 60 60 59 59 59 60 60 62 64 67 71 74 78 81 84 87 88 90 91 90 90 90 89 88
42 44 47 50 52 53 54 55 55 55 56 56 56 55 53 50 47 45 44 44 45 46 46 47 47 48 48 49 50 51 51 52 53 54 55 56 57 58 59 60 60 60 60 60 60 60 60 61 62 64 67 70 73 77 80 83 86 88 89 90 91 91 90
45 47 50 51 52 52 53 53 54 54 54 52 49 46 43 41 41 41 42 42 42 43 43 43 44 45 46 47 49 50 51 52 53 54 55 56 57 58 59 60 60 61 61 61 62 62 62 62 62 62 63 65 67 69 72 75 79 81 83 85 87 88 88
47 49 50 50 51 51 51 52 51 50 47 43 40 38 38 38 39 38 38 38 38 39 41 42 44 45 47 49 50 52 53 54 55 56 57 58 59 60 61 62 63 63 64 64 64 64 64 64 64 64 64 64 65 66 68 70 72 75 77 78 80 82 83
48 48 48 49 49 49 49 47 44 40 37 36 36 36 36 36 35 35 35 36 37 39 41 43 45 46 48 49 50 51 52 53 54 55 56 57 58 59 60 61 63 64 65 66 67 67 67 67 67 67 66 66 66 67 67 68 69 71 73 74 75 76 77
46 46 47 47 47 45 41 37 34 32 32 33 33 32 32 31 32 33 34 36 38 39 40 41 42 43 44 44 45 46 46 47 48 49 50 51 52 54 55 56 58 60 61 63 65 66 67 68 69 70 70 69 69 69 69 70 70 70 71 72 73 73 74
Wind_Direction
257 258 259 260 260 261 261 262 262 263 264 264 264 265 265 266 266 267 268 269 270 270 269 268 266 266 266 266 264 263 262 261 261 260 260 261 261 262 262 262 263 263 262 261 262 263 263 262 262 262 262 262 262 263 263 263 263 263 263 264 264 264 265
259 260 260 261 262 263 263 264 264 265 266 266 266 267 267 267 267 267 268 268 268 267 267 267 266 266 267 267 266 265 264 263 262 262 261 261 261 261 262 262 263 263 262 261 261 262 262 262 262 262 262 262 262 262 262 262 262 263 263 264 264 265 265
261 261 262 262 263 264 264 264 265 266 266 267 267 267 267 267 267 266 266 266 265 265 265 265 265 266 267 267 266 265 264 264 264 264 263 263 263 263 262 263 263 263 263 262 261 262 262 262 262 262 262 261 261 261 261 261 262 262 263 264 264 265 265
264 264 264 264 264 264 264 265 265 265 266 266 266 266 266 266 266 265 265 265 265 264 264 265 265 266 267 267 266 265 265 264 264 264 264 263 263 263 262 262 263 263 262 262 261 261 261 261 261 261 261 261 261 261 261 261 262 263 263 264 265 265 265
266 266 266 266 265 265 265 265 265 265 265 265 265 264 264 264 264 264 265 265 266 266 266 266 266 266 266 267 267 267 266 265 265 264 263 262 261 261 261 261 261 261 261 261 261 260 260 261 260 260 260 261 261 262 262 262 263 263 264 264 264 265 265
267 267 267 267 267 267 267 267 267 267 266 266 265 265 264 263 263 263 263 264 265 266 266 267 267 267 266 266 266 266 266 266 265 265 264 262 261 261 261 261 261 261 261 261 261 261 260 261 261 261 260 261 262 262 263 263 263 263 264 264 264 265 266
266 266 266 266 266 267 267 267 267 268 267 267 267 267 266 266 265 265 264 265 265 265 266 266 267 267 266 266 265 265 265 265 265 264 264 263 261 261 261 261 261 261 262 262 262 262 262 262 262 262 262 261 262 262 263 264 264 265 265 265 265 266 266
266 266 266 265 265 265 265 265 265 266 266 266 267 267 267 267 267 267 266 266 266 265 265 266 266 266 266 265 264 263 263 263 263 263 263 262 262 262 262 262 262 262 262 262 263 263 263 263 263 263 263 263 263 263 264 265 266 266 266 266 266 265 265
268 267 266 265 264 264 263 263 264 264 264 265 265 265 265 265 265 265 265 265 265 265 265 264 264 264 264 264 264 263 262 262 262 262 262 262 262 263 263 263 263 263 263 263 264 264 264 264 264 264 264 264 265 265 265 265 266 266 266 266 265 265 265
270 269 268 267 266 265 264 264 263 263 264 264 265 265 265 265 265 265 264 264 264 264 263 263 263 263 263 263 263 263 264 263 263 263 263 263 263 263 264 264 264 264 264 265 264 264 264 264 264 264 264 264 265 265 265 265 265 265 265 265 265 265 265
272 271 270 269 268 267 266 266 265 265 264 264 265 265 265 265 265 266 266 266 265 265 265 264 264 264 264 265 265 265 265 266 266 266 265 265 265 265 265 265 265 265 265 265 265 264 264 264 264 264 264 264 264 265 265 265 265 264 265 265 265 265 265
274 274 273 272 270 269 268 268 267 266 266 266 266 265 265 265 266 266 267 267 267 267 267 267 267 267 267 267 267 267 267 267 267 267 267 267 267 266 266 266 265 265 265 265 265 265 265 265 265 265 265 265 265 265 264 264 263 263 264 264 264 264 263
275 275 274 273 272 270 269 268 268 267 267 267 267 267 267 267 267 267 267 267 268 268 268 268 268 268 268 268 268 267 267 267 267 267 267 267 267 267 266 266 266 266 266 265 265 265 265 265 265 265 265 265 264 263 263 263 263 263 263 263 262 262 261
277 276 275 273 272 270 269 268 268 267 267 267 267 267 268 268 268 268 268 268 268 268 268 268 268 268 268 268 267 267 267 266 266 266 266 266 266 266 266 266 266 266 266 266 265 265 265 265 264 264 264 263 262 262 262 262 262 262 261 261 260 259 259
278 278 277 275 273 272 270 269 268 268 268 268 268 268 268 268 268 268 268 268 268 268 268 268 268 268 267 267 267 266 266 266 266 265 265 265 265 265 265 265 265 265 265 265 265 265 264 264 263 263 262 262 261 261 260 260 260 259 259 258 258 258 258
279 279 278 278 277 275 274 272 271 270 269 269 269 269 269 269 268 268 268 268 268 268 268 268 267 267 266 266 266 266 267 267 266 266 266 266 266 266 265 265 265 265 264 264 264 264 264 263 263 262 262 261 260 260 260 259 258 258 258 258 258 258 258
280 280 280 279 279 277 276 274 273 272 271 271 270 270 269 269 268 268 268 268 268 268 268 268 267 267 267 267 267 267 267 267 267 267 267 266 266 266 266 266 266 265 265 264 264 264 264 263 263 262 262 261 261 260 259 259 258 258 258 259 258 258 258
280 280 280 279 278 277 275 274 274 273 272 271 270 269 269 269 268 268 268 269 270 270 269 268 268 268 268 267 267 267 267 267 267 267 267 267 267 267 267 267 266 266 266 265 264 264 263 263 263 262 262 261 261 260 260 259 259 259 259 259 259 259 259
279 279 278 278 277 276 275 275 274 274 273 272 272 271 271 270 270 270 270 270 271 270 269 268 268 268 268 267 267 267 267 267 268 268 268 269 268 268 267 267 268 267 267 266 265 264 263 262 262 261 261 260 260 260 259 259 259 258 258 258 259 259 259
278 278 278 277 276 276 275 275 275 274 274 274 273 273 273 272 271 271 271 271 271 270 269 270 270 270 270 270 269 269 269 269 269 270 270 270 269 268 268 269 268 267 266 265 265 264 263 262 261 261 261 260 260 260 260 259 258 258 258 258 258 258 258
278 278 277 276 276 275 275 275 275 275 275 275 275 275 274 273 273 273 273 272 271 271 271 272 272 273 273 273 273 273 272 272 272 272 271 271 270 270 270 269 267 266 266 265 264 263 263 262 262 261 261 261 261 261 260 260 258 257 258 258 258 257 257
277 277 277 276 276 276 275 275 275 275 275 275 275 275 275 275 274 274 274 273 272 273 273 273 273 274 275 275 275 275 274 274 273 273 272 272 271 271 270 269 268 267 266 265 264 263 262 261 261 261 261 261 261 261 261 260 259 258 257 257 257 257 257
277 277 276 276 276 276 275 274 274 274 274 275 275 276 276 276 275 275 275 275 274 274 274 275 275 275 275 275 275 275 274 274 274 273 273 272 272 271 270 269 268 267 266 265 264 262 261 261 260 260 260 259 260 259 259 260 260 258 257 256 256 257 257
277 276 276 276 276 275 275 274 274 274 274 275 276 277 278 278 278 278 278 277 277 277 277 277 277 276 276 276 275 275 275 275 274 274 273 273 272 271 271 270 269 268 266 265 264 262 261 260 259 259 259 258 258 258 258 258 259 258 257 257 256 256 257
276 276 276 276 276 276 276 277 277 278 278 279 279 280 281 281 281 281 281 281 280 280 280 279 278 278 277 276 276 275 275 275 275 274 274 273 272 272 271 270 269 268 266 265 263 262 260 259 258 258 258 257 257 257 257 257 258 258 257 257 256 256 256
274 275 275 275 276 278 279 280 281 281 282 282 282 283 284 284 284 285 285 284 283 283 282 281 280 280 279 278 277 276 276 275 275 275 274 274 273 272 271 270 269 267 266 264 263 261 260 258 257 257 256 256 256 256 256 256 256 256 256 256 256 255 255
273 273 274 276 278 280 282 283 284 285 286 286 286 287 286 286 287 287 286 286 286 285 284 284 283 282 281 280 279 278 277 276 276 275 274 274 273 272 271 270 269 268 267 265 263 261 259 257 256 256 255 254 254 254 255 255 255 256 256 255 255 255 255
272 274 276 279 282 284 286 287 288 289 289 290 289 289 288 288 288 288 287 287 287 286 286 285 285 284 283 282 281 280 279 278 277 276 275 274 273 273 272 271 270 269 267 265 264 262 260 258 256 255 254 254 254 253 253 253 254 255 255 255 255 255 255
274 278 281 283 285 287 289 290 291 291 291 291 290 289 289 289 288 288 287 287 287 287 286 286 285 285 284 283 283 282 281 280 280 279 278 277 275 274 273 273 271 270 268 266 264 262 261 259 258 256 254 254 254 253 253 253 253 254 254 254 255 255 255
278 281 284 286 288 289 290 291 291 291 291 291 291 290 290 290 290 289 289 289 288 288 287 286 286 285 285 284 284 283 282 282 281 280 280 279 278 277 276 274 273 272 270 269 266 264 262 260 259 258 256 255 254 254 253 253 253 253 254 254 254 255 255
282 284 286 288 290 292 292 292 293 293 293 293 293 293 293 292 292 291 291 290 289 289 288 288 287 287 286 285 284 283 283 282 281 280 280 279 278 278 277 276 275 273 271 270 268 267 264 262 260 259 258 257 256 255 254 254 254 254 254 254 254 254 255
287 289 291 292 294 294 295 295 295 295 295 295 295 295 295 294 294 293 292 292 292 292 291 291 290 290 289 288 287 286 285 284 282 281 280 279 278 278 277 276 275 274 273 271 270 268 266 264 262 260 259 257 257 256 256 255 255 255 254 254 254 254 255
293 294 295 296 296 296 296 297 297 297 297 297 296 296 296 296 296 296 297 297 297 296 296 296 295 294 293 292 291 289 288 286 285 283 281 280 278 277 276 275 274 274 273 272 271 269 268 266 264 262 261 259 257 257 256 256 256 255 255 255 255 255 255
297 298 298 298 298 298 298 298 298 298 298 298 298 298 299 300 300 301 301 302 302 302 301 301 300 299 298 296 295 293 291 289 287 285 283 281 279 277 276 275 273 272 271 271 270 269 268 267 266 264 262 261 259 258 257 256 256 256 256 255 255 255 255
300 300 301 301 300 300 300 300 300 300 300 301 301 302 303 304 304 305 306 307 308 308 307 307 305 304 303 301 299 297 295 293 290 288 286 283 281 279 277 275 274 272 271 270 269 268 267 266 265 264 263 262 261 260 258 257 256 256 256 256 255 255 255
303 303 303 303 303 302 302 301 301 302 303 304 305 306 308 309 311 312 313 314 314 314 313 313 312 311 310 308 306 304 302 299 296 293 290 287 285 282 280 278 276 274 272 270 269 268 267 266 265 264 263 262 261 260 260 259 258 257 256 256 256 255 255